STARLINK-32466, 61859

Orbit data source: Space-Track

STARLINK-32466, 61859 is a payload satellite owned by SpaceX/Seattle (US) in LEO that was launched on Thu, 07 Nov 2024 UTC via an FALCON 9 launch vehicle from the Air Force Eastern Test Range (AFETR). Payload-class satellites include a variety of spacecraft equipped with specific instruments for various scientific and technological missions. These include communications satellites like Starlink; space stations such as the ISS; scientific satellites like the Hubble; Earth observation satellites from companies like Planet Labs, Umbra, and HawkEye 360; GPS; miniature CubeSats for education and research; and military/defense satellites.

Loading next visibility...
Identifier
61859, 2024-202Q
Orbit
LEO
Last TLE update
19 hours ago
Origin
Manufacturer
SpaceX/Seattle
Mission
Operational Commercial Communications
Bus & Motor
STARLINK V2M, Unknown motor
Mass
730 kg wet, ~700 kg dry
Launch date (UTC)
2024-11-07 (8 months ago)
Launch vehicle
FALCON 9
Launch site
Air Force Eastern Test Range (AFETR)
Object type
Payload
Rocket body
Debris
Shape & HBR
Box + 2 Pan, 29 m
Radar Cross Section
33.884 m², Large (>1 m²)

Expand to show TLE details & history

TLE from 19 hours ago
0 STARLINK-32466
1 61859U 24202Q   25191.21162405  .00000291  00000-0  20116-4 0  9994
2 61859  43.0012 167.3843 0001335 267.5919  92.4780 15.27574765 38251
Epoch: 2025-07-10T05:04Z
TLE epoch observation values (Epoch: 2025-07-10T05:04:44.317Z)
Latitude
-0.00003°
Longitude
162.81846°
Altitude
482.88 km
Speed
7.626 km/s
True Right ascension
11h 09m 32s
True Declination
0° 00' 00"
Sunlit
Object was in daylight at epoch
Visualization orbit readout
Latitude
-9.61835°
Longitude
147.98821°
Altitude
484.321 km
Speed
7.625 km/s
Apparent Right ascension
07h 14m 54s
Apparent Declination
-56° 28' 13"
Sunlit
Object is in daylight
Visualization observer readout
Local Sidereal Time
12:07:03
Azimuth
215.424° SW
Elevation
-24.286°
Doppler factor
1
Orbital elements
Apogee altitude
485.926 km
Perigee altitude
484.094 km
Semi-major axis
6,863.147 km
Eccentricity
0.00013
Inclination
43.0012°
RAAN
167.3843°
Arg. of periapsis
267.5919°
True anomaly
Unknown
Mean anomaly
92.478°
Eccentric anomaly
Unknown
Mean motion
3.81732 °/min
Orbital period
94.31 mins
BSTAR
0.000020116
Loading maneuver chart data...
Loading SW <> Apogee altitude chart data...
Loading historical data...
Loading historical data...
Loading historical data...
Loading historical data...
Loading historical data...
Loading historical data...
Loading historical data...

STARLINK-32466 Visibility forecast

Observer location: undefined°, undefined°

Span
Click to sort rows by Start time (UTC) header in descending order
Start Az.
Max El. time (UTC)
Max El. Az.
Max El.
End time (UTC)
End Az.
6 mins2025-07-11 01:40:55.690Z219.234° SW2025-07-11 01:43:55.690Z160.872° S32.094°2025-07-11 01:46:55.690Z86.099° E
5 mins2025-07-11 03:20:55.690Z270.742° WNW2025-07-11 03:22:55.690Z338.083° N42.266°2025-07-11 03:25:55.690Z68.666° E
5 mins2025-07-11 04:59:55.690Z294.142° NW2025-07-11 05:01:55.690Z344.97° N38.346°2025-07-11 05:04:55.690Z80.187° E
6 mins2025-07-11 06:38:55.690Z281.123° WNW2025-07-11 06:40:55.690Z238.015° WSW41.338°2025-07-11 06:44:55.690Z121.092° SE
|